Weather History for Hutchinson, MN

Change the Weather History Date:

Sunday, September 30, 2012

  Actual Average Record
Temperature  
Mean Temperature 60 °F -  
Max Temperature 79 °F 68 °F 88 °F (1976)
Min Temperature 41 °F 43 °F 26 °F (2003)
Degree Days  
Heating Degree Days 5    
Growing Degree Days 10 (Base 50)    
Moisture  
Dew Point 44 °F    
Average Humidity 61    
Maximum Humidity 94    
Minimum Humidity 30    
Precipitation  
Precipitation 0.00 in - - ()
Sea Level Pressure  
Sea Level Pressure 29.96 in    
Wind  
Wind Speed 1 mph (SE)    
Max Wind Speed 6 mph    
Max Gust Speed -    
Visibility 10 miles    
Events      
Averages and records for this station are not official NWS values.
T = Trace of Precipitation, MM = Missing Value Source: NWS Daily Summary

Daily Weather History Graph

Daily Weather History Graph

Search for Another Location

Airport:

Trip Planner

Search our weather history database for the weather conditions in past years. The results will help you decide how hot, cold, wet, or windy it might be!

Date:

Astronomy

Sep. 30, 2012 Rise Set
Actual Time 7:14 AM CDT 6:58 PM CDT
Civil Twilight 6:45 AM CDT 7:28 PM CDT
Nautical Twilight 6:11 AM CDT 8:02 PM CDT
Astronomical Twilight 5:37 AM CDT 8:36 PM CDT
Moon 6:58 PM CDT (9/30) 7:50 AM CDT (9/30)
Length of Visible Light 12h 42m
Length of Day
11h 44m
Full, 100% of the Moon is Illuminated
Sep 30
Full
Oct 8
Last Quarter
Oct 15
New
Oct 21
First Quarter
Oct 29
Full

Hourly Weather History & Observations

Time (CDT) Temp. Dew Point Humidity Pressure Visibility Wind Dir Wind Speed Gust Speed Precip Events Conditions
12:08 AM 49.1 °F 43.9 °F 82% 30.03 in 10.0 mi Calm Calm - N/A   Clear
12:29 AM 49.1 °F 43.7 °F 82% 30.03 in 10.0 mi Calm Calm - N/A   Clear
12:49 AM 49.1 °F 43.0 °F 79% 30.03 in 10.0 mi Calm Calm - N/A   Clear
1:08 AM 49.1 °F 43.2 °F 80% 30.03 in 10.0 mi Calm Calm - N/A   Clear
1:29 AM 46.6 °F 42.6 °F 86% 30.03 in 10.0 mi Calm Calm - N/A   Clear
1:49 AM 48.0 °F 43.5 °F 84% 30.03 in 10.0 mi Calm Calm - N/A   Clear
2:09 AM 49.1 °F 44.2 °F 83% 30.02 in 10.0 mi Calm Calm - N/A   Clear
2:29 AM 46.6 °F 43.2 °F 88% 30.02 in 10.0 mi Calm Calm - N/A   Clear
2:49 AM 45.0 °F 40.8 °F 85% 30.01 in 10.0 mi Calm Calm - N/A   Clear
3:09 AM 46.6 °F 42.1 °F 84% 30.01 in 10.0 mi Calm Calm - N/A   Clear
3:28 AM 46.8 °F 42.8 °F 86% 30.01 in 10.0 mi Calm Calm - N/A   Clear
3:49 AM 43.2 °F 40.5 °F 90% 30.01 in 10.0 mi Calm Calm - N/A   Clear
4:09 AM 45.3 °F 41.9 °F 88% 30.01 in 10.0 mi Calm Calm - N/A   Clear
4:29 AM 42.8 °F 39.7 °F 89% 30.01 in 10.0 mi Calm Calm - N/A   Clear
4:49 AM 45.3 °F 41.9 °F 88% 30.01 in 10.0 mi Calm Calm - N/A   Clear
5:09 AM 43.2 °F 40.8 °F 91% 30.01 in 10.0 mi Calm Calm - N/A   Clear
5:29 AM 44.6 °F 41.7 °F 90% 30.00 in 10.0 mi Calm Calm - N/A   Clear
5:49 AM 45.0 °F 43.2 °F 93% 30.00 in 10.0 mi Calm Calm - N/A   Clear
6:08 AM 42.6 °F 40.5 °F 92% 30.00 in 10.0 mi Calm Calm - N/A   Clear
6:29 AM 44.2 °F 42.3 °F 93% 30.00 in 10.0 mi Calm Calm - N/A   Clear
6:48 AM 43.0 °F 40.5 °F 91% 29.99 in 10.0 mi Calm Calm - N/A   Clear
7:09 AM 41.7 °F 39.9 °F 93% 30.00 in 10.0 mi Calm Calm - N/A   Clear
7:28 AM 42.3 °F 40.6 °F 94% 30.00 in 10.0 mi Calm Calm - N/A   Clear
7:48 AM 41.9 °F 39.9 °F 93% 30.00 in 10.0 mi Calm Calm - N/A   Clear
8:09 AM 45.5 °F 43.7 °F 93% 30.00 in 10.0 mi Calm Calm - N/A   Clear
8:29 AM 49.5 °F 46.2 °F 89% 29.99 in 10.0 mi Calm Calm - N/A   Clear
8:49 AM 54.1 °F 48.0 °F 80% 30.00 in 10.0 mi Calm Calm - N/A   Clear
9:09 AM 56.7 °F 46.4 °F 69% 30.00 in 10.0 mi Calm Calm - N/A   Clear
9:29 AM 59.2 °F 46.9 °F 64% 30.00 in 10.0 mi SE 3.5 mph - N/A   Clear
9:49 AM 61.3 °F 46.8 °F 59% 30.00 in 10.0 mi Calm Calm - N/A   Clear
10:09 AM 62.2 °F 46.4 °F 56% 30.00 in 10.0 mi Calm Calm - N/A   Clear
10:29 AM 66.7 °F 48.7 °F 52% 29.99 in 10.0 mi Calm Calm - N/A   Clear
10:49 AM 69.3 °F 48.6 °F 48% 29.99 in 10.0 mi Calm Calm - N/A   Clear
11:09 AM 69.4 °F 46.6 °F 44% 29.98 in 10.0 mi SE 3.5 mph - N/A   Clear
11:29 AM 73.6 °F 47.7 °F 40% 29.98 in 10.0 mi ESE 4.6 mph - N/A   Clear
11:48 AM 74.3 °F 47.1 °F 38% 29.98 in 10.0 mi ESE 4.6 mph - N/A   Clear
12:09 PM 74.3 °F 45.7 °F 36% 29.98 in 10.0 mi SSE 3.5 mph - N/A   Clear
12:29 PM 76.8 °F 46.6 °F 34% 29.97 in 10.0 mi ESE 3.5 mph - N/A   Clear
12:49 PM 77.0 °F 45.7 °F 33% 29.96 in 10.0 mi East 4.6 mph - N/A   Clear
1:09 PM 77.0 °F 45.5 °F 33% 29.96 in 10.0 mi Calm Calm - N/A   Clear
1:29 PM 78.1 °F 45.5 °F 32% 29.95 in 10.0 mi SSE 3.5 mph - N/A   Clear
1:49 PM 79.3 °F 46.0 °F 31% 29.94 in 10.0 mi East 4.6 mph - N/A   Clear
2:09 PM 79.3 °F 45.9 °F 31% 29.93 in 10.0 mi Calm Calm - N/A   Clear
2:29 PM 79.3 °F 45.7 °F 30% 29.93 in 10.0 mi ESE 3.5 mph - N/A   Clear
2:49 PM 79.3 °F 46.0 °F 31% 29.93 in 10.0 mi Calm Calm - N/A   Clear
3:09 PM 79.3 °F 46.0 °F 31% 29.93 in 10.0 mi South 3.5 mph - N/A   Clear
3:29 PM 79.3 °F 46.0 °F 31% 29.92 in 10.0 mi SE 5.8 mph - N/A   Clear
3:49 PM 79.3 °F 45.5 °F 30% 29.92 in 10.0 mi SE 4.6 mph - N/A   Clear
4:01 PM 79.5 °F 45.5 °F 30% 29.91 in 10.0 mi SSE 4.6 mph - N/A   Clear
4:55 PM - - N/A% - - North - - N/A   Unknown
5:09 PM 79.3 °F 45.5 °F 30% 29.90 in 10.0 mi SE 3.5 mph - N/A   Unknown
5:29 PM 79.3 °F 45.9 °F 31% 29.90 in 10.0 mi Calm Calm - N/A   Clear
5:49 PM 77.7 °F 44.6 °F 31% 29.89 in 10.0 mi Calm Calm - N/A   Clear
6:09 PM 77.0 °F 45.3 °F 32% 29.89 in 10.0 mi Calm Calm - N/A   Clear
6:28 PM 74.3 °F 45.3 °F 36% 29.89 in 10.0 mi Calm Calm - N/A   Clear
6:49 PM 72.9 °F 45.7 °F 38% 29.89 in 10.0 mi Calm Calm - N/A   Clear
7:09 PM 69.3 °F 43.7 °F 40% 29.89 in 10.0 mi Calm Calm - N/A   Clear
7:28 PM 69.3 °F 45.3 °F 42% 29.88 in 10.0 mi SE 3.5 mph - N/A   Clear
7:49 PM 64.4 °F 43.7 °F 47% 29.89 in 10.0 mi Calm Calm - N/A   Clear
8:08 PM 64.4 °F 44.1 °F 48% 29.89 in 10.0 mi Calm Calm - N/A   Clear
8:29 PM 62.2 °F 43.3 °F 50% 29.89 in 10.0 mi SE 3.5 mph - N/A   Clear
8:48 PM 61.7 °F 44.1 °F 52% 29.89 in 7.0 mi SE 3.5 mph - N/A   Clear
9:09 PM 61.2 °F 44.1 °F 53% 29.89 in 7.0 mi SE 4.6 mph - N/A   Clear
9:28 PM 60.3 °F 43.9 °F 55% 29.89 in 7.0 mi SE 3.5 mph - N/A   Clear
9:48 PM 59.2 °F 44.1 °F 57% 29.89 in 7.0 mi Calm Calm - N/A   Clear
10:09 PM 56.7 °F 43.7 °F 62% 29.89 in 10.0 mi Calm Calm - N/A   Clear
10:29 PM 56.7 °F 43.5 °F 61% 29.89 in 10.0 mi Calm Calm - N/A   Clear
11:09 PM 55.0 °F 43.2 °F 64% 29.89 in 10.0 mi Calm Calm - N/A   Clear
11:29 PM 54.3 °F 43.2 °F 66% 29.88 in 10.0 mi Calm Calm - N/A   Clear
11:49 PM 56.7 °F 43.7 °F 62% 29.88 in 10.0 mi Calm Calm - N/A   Clear